Conditions Actuelle
Plutôt dégagé



Pression
29.94 (inHG) - 1013.88 (mb)
Visibilité

9.7 (km) - 6.0 (miles)
   Température
2  °C
Température
1  °C
Point de Rosée
93  %
 Humidité
   Vitesse du Vent
5  km/h
3  kts
3  mph
1.3  m/s
   Direction du Vent
N
45°
E
90°
135°
S
180°
225°
O
270°
315°
 130°

Sud Est
   Données D'Aéroport
LFBG
Cognac-Châteaubernard (BA 709) Air Base
Metar :LFBG 040000Z AUTO 13003KT CAVOK 02/01 Q1014
04-03-2024 01:00
   Informations de métar brut
Le METAR brut est le format le plus courant au monde pour la transmission de données météorologiques d'observation. Il est hautement standardisé par l’Organisation de l’aviation civile internationale (OACI), ce qui lui permet d’être compris dans la plupart des pays du monde.
   API Information
Données fournies par
https://www.checkwx.com/weather/LFBG

Météo aéronautique fournissant des rapports météorologiques METAR, TAF, AIRMET, SIGMET et OUTLOOK
   © Info
CSS/SVG/PHP les scripts ont été développés pa weather34.com pour une utilisation dans le modèle weather34 © 2015-2024

Informations sur le guide fournies par Metar-Wikipedia